Time,TemperatureF,DewpointF,PressureIn,WindDirection,WindDirectionDegrees,WindSpeedMPH,WindSpeedGustMPH,Humidity,HourlyPrecipIn,Conditions,Clouds,dailyrainin,SoftwareType,DateUTC
2013-02-20 00:08:00,49.1,48.0,30.02,West,272,0.0,3.0,95,0.00,,,0.00,weatherlink.com 1.10,2013-02-20 05:08:00,
2013-02-20 00:23:00,48.7,48.0,30.02,West,280,1.0,3.0,96,0.00,,,0.00,weatherlink.com 1.10,2013-02-20 05:23:00,
2013-02-20 00:38:00,48.5,47.0,30.02,WNW,289,2.0,7.0,95,0.00,,,0.00,weatherlink.com 1.10,2013-02-20 05:38:00,
2013-02-20 00:53:00,48.4,47.0,30.02,WNW,284,1.0,5.0,94,0.00,,,0.00,weatherlink.com 1.10,2013-02-20 05:53:00,
2013-02-20 01:08:00,48.0,46.0,30.03,West,265,1.0,6.0,94,0.00,,,0.00,weatherlink.com 1.10,2013-02-20 06:08:00,
2013-02-20 01:24:00,47.6,46.0,30.03,West,270,1.0,6.0,93,0.00,,,0.00,weatherlink.com 1.10,2013-02-20 06:24:00,
2013-02-20 01:40:00,47.1,45.0,30.04,NW,322,1.0,5.0,93,0.00,,,0.00,weatherlink.com 1.10,2013-02-20 06:40:00,
2013-02-20 01:54:00,46.7,45.0,30.04,NW,311,3.0,6.0,93,0.00,,,0.00,weatherlink.com 1.10,2013-02-20 06:54:00,
2013-02-20 02:09:00,46.3,44.0,30.04,NW,305,2.0,5.0,93,0.00,,,0.00,weatherlink.com 1.10,2013-02-20 07:09:00,
2013-02-20 02:24:00,45.9,44.0,30.04,NW,315,3.0,4.0,92,0.00,,,0.00,weatherlink.com 1.10,2013-02-20 07:24:00,
2013-02-20 02:39:00,45.5,43.0,30.04,NW,326,0.0,5.0,91,0.00,,,0.00,weatherlink.com 1.10,2013-02-20 07:39:00,
2013-02-20 02:54:00,44.8,42.0,30.04,WNW,302,2.0,3.0,91,0.00,,,0.00,weatherlink.com 1.10,2013-02-20 07:54:00,
2013-02-20 03:09:00,44.4,42.0,30.05,WNW,300,1.0,3.0,91,0.00,,,0.00,weatherlink.com 1.10,2013-02-20 08:09:00,
2013-02-20 03:24:00,43.8,41.0,30.05,WNW,298,0.0,2.0,91,0.00,,,0.00,weatherlink.com 1.10,2013-02-20 08:24:00,
2013-02-20 03:39:00,43.2,41.0,30.04,WNW,285,0.0,1.0,92,0.00,,,0.00,weatherlink.com 1.10,2013-02-20 08:39:00,
2013-02-20 03:54:00,42.7,41.0,30.05,WNW,299,0.0,3.0,92,0.00,,,0.00,weatherlink.com 1.10,2013-02-20 08:54:00,
2013-02-20 04:09:00,42.2,40.0,30.05,WNW,298,1.0,3.0,92,0.00,,,0.00,weatherlink.com 1.10,2013-02-20 09:09:00,
2013-02-20 04:24:00,41.6,40.0,30.06,WNW,302,1.0,1.0,93,0.00,,,0.00,weatherlink.com 1.10,2013-02-20 09:24:00,
2013-02-20 04:39:00,41.2,39.0,30.07,WNW,295,1.0,2.0,93,0.00,,,0.00,weatherlink.com 1.10,2013-02-20 09:39:00,
2013-02-20 04:54:00,40.5,39.0,30.07,West,281,0.0,1.0,93,0.00,,,0.00,weatherlink.com 1.10,2013-02-20 09:54:00,
2013-02-20 05:09:00,39.4,38.0,30.08,West,280,0.0,0.0,94,0.00,,,0.00,weatherlink.com 1.10,2013-02-20 10:09:00,
2013-02-20 05:24:00,38.9,38.0,30.08,WNW,299,1.0,1.0,95,0.00,,,0.00,weatherlink.com 1.10,2013-02-20 10:24:00,
2013-02-20 05:39:00,39.0,38.0,30.08,NW,306,0.0,1.0,94,0.01,,,0.01,weatherlink.com 1.10,2013-02-20 10:39:00,
2013-02-20 05:54:00,39.0,38.0,30.09,WNW,302,0.0,2.0,94,0.01,,,0.01,weatherlink.com 1.10,2013-02-20 10:54:00,
2013-02-20 06:09:00,38.4,37.0,30.09,NW,311,0.0,0.0,93,0.01,,,0.01,weatherlink.com 1.10,2013-02-20 11:09:00,
2013-02-20 06:24:00,37.8,36.0,30.10,WNW,286,0.0,1.0,94,0.01,,,0.01,weatherlink.com 1.10,2013-02-20 11:24:00,
2013-02-20 06:39:00,36.9,35.0,30.10,WNW,285,0.0,1.0,94,0.00,,,0.01,weatherlink.com 1.10,2013-02-20 11:39:00,
2013-02-20 06:54:00,36.1,35.0,30.11,WNW,285,0.0,1.0,95,0.00,,,0.01,weatherlink.com 1.10,2013-02-20 11:54:00,
2013-02-20 07:10:00,35.6,35.0,30.12,WNW,285,0.0,0.0,96,0.00,,,0.01,weatherlink.com 1.10,2013-02-20 12:10:00,
2013-02-20 07:25:00,35.2,34.0,30.12,WNW,285,0.0,0.0,96,0.00,,,0.01,weatherlink.com 1.10,2013-02-20 12:25:00,
2013-02-20 07:40:00,34.9,34.0,30.13,WNW,285,0.0,0.0,96,0.00,,,0.01,weatherlink.com 1.10,2013-02-20 12:40:00,
2013-02-20 07:55:00,37.1,36.0,30.13,WNW,286,0.0,0.0,97,0.00,,,0.01,weatherlink.com 1.10,2013-02-20 12:55:00,
2013-02-20 08:10:00,38.9,38.0,30.13,NW,309,1.0,3.0,96,0.00,,,0.01,weatherlink.com 1.10,2013-02-20 13:10:00,
2013-02-20 08:25:00,40.6,38.0,30.14,North,355,0.0,4.0,90,0.00,,,0.01,weatherlink.com 1.10,2013-02-20 13:25:00,
2013-02-20 08:40:00,42.4,38.0,30.15,NNW,329,2.0,4.0,83,0.00,,,0.01,weatherlink.com 1.10,2013-02-20 13:40:00,
2013-02-20 08:55:00,43.6,35.0,30.15,NNW,347,0.0,5.0,71,0.00,,,0.01,weatherlink.com 1.10,2013-02-20 13:55:00,
2013-02-20 09:10:00,45.1,35.0,30.15,North,357,0.0,4.0,69,0.00,,,0.01,weatherlink.com 1.10,2013-02-20 14:10:00,
2013-02-20 09:25:00,45.8,35.0,30.15,NNW,338,1.0,4.0,65,0.00,,,0.01,weatherlink.com 1.10,2013-02-20 14:25:00,
2013-02-20 09:40:00,46.4,33.0,30.15,NNW,332,2.0,4.0,59,0.00,,,0.01,weatherlink.com 1.10,2013-02-20 14:40:00,
2013-02-20 09:55:00,47.4,29.0,30.16,North,3,2.0,6.0,50,0.00,,,0.01,weatherlink.com 1.10,2013-02-20 14:55:00,
2013-02-20 10:10:00,48.7,33.0,30.15,NE,56,3.0,4.0,55,0.00,,,0.01,weatherlink.com 1.10,2013-02-20 15:10:00,
2013-02-20 10:26:00,48.8,30.0,30.15,NW,312,2.0,4.0,48,0.00,,,0.01,weatherlink.com 1.10,2013-02-20 15:26:00,
2013-02-20 10:40:00,49.1,29.0,30.15,NE,42,6.0,8.0,46,0.00,,,0.01,weatherlink.com 1.10,2013-02-20 15:40:00,
2013-02-20 10:55:00,50.3,28.0,30.15,ENE,62,2.0,6.0,42,0.00,,,0.01,weatherlink.com 1.10,2013-02-20 15:55:00,
2013-02-20 11:10:00,50.8,26.0,30.15,WNW,285,1.0,8.0,39,0.00,,,0.01,weatherlink.com 1.10,2013-02-20 16:10:00,
2013-02-20 11:25:00,51.7,27.0,30.15,NNE,14,1.0,7.0,39,0.00,,,0.01,weatherlink.com 1.10,2013-02-20 16:25:00,
2013-02-20 11:40:00,51.8,27.0,30.14,WNW,293,0.0,8.0,39,0.00,,,0.01,weatherlink.com 1.10,2013-02-20 16:40:00,
2013-02-20 11:55:00,53.4,25.0,30.13,NW,308,5.0,8.0,34,0.00,,,0.01,weatherlink.com 1.10,2013-02-20 16:55:00,
2013-02-20 12:10:00,53.7,26.0,30.12,ESE,105,0.0,6.0,35,0.00,,,0.01,weatherlink.com 1.10,2013-02-20 17:10:00,
2013-02-20 12:25:00,53.8,27.0,30.11,NNW,337,4.0,5.0,35,0.00,,,0.01,weatherlink.com 1.10,2013-02-20 17:25:00,
2013-02-20 12:40:00,54.5,25.0,30.11,NW,318,4.0,6.0,32,0.00,,,0.01,weatherlink.com 1.10,2013-02-20 17:40:00,
2013-02-20 12:55:00,54.4,24.0,30.09,NNW,333,3.0,6.0,31,0.00,,,0.01,weatherlink.com 1.10,2013-02-20 17:55:00,
2013-02-20 13:10:00,55.1,26.0,30.08,NNW,344,3.0,6.0,33,0.00,,,0.01,weatherlink.com 1.10,2013-02-20 18:10:00,
2013-02-20 13:25:00,55.9,25.0,30.07,NNW,348,3.0,6.0,31,0.00,,,0.01,weatherlink.com 1.10,2013-02-20 18:25:00,
2013-02-20 13:40:00,55.9,26.0,30.07,West,270,1.0,7.0,32,0.00,,,0.01,weatherlink.com 1.10,2013-02-20 18:40:00,
2013-02-20 13:55:00,55.6,33.0,30.07,South,169,3.0,8.0,43,0.00,,,0.01,weatherlink.com 1.10,2013-02-20 18:55:00,
2013-02-20 14:10:00,54.4,34.0,30.06,SSE,151,5.0,8.0,47,0.00,,,0.01,weatherlink.com 1.10,2013-02-20 19:10:00,
2013-02-20 14:25:00,54.4,34.0,30.05,South,184,1.0,10.0,46,0.00,,,0.01,weatherlink.com 1.10,2013-02-20 19:25:00,
2013-02-20 14:42:00,54.5,33.0,30.05,SW,236,6.0,8.0,44,0.00,,,0.01,weatherlink.com 1.10,2013-02-20 19:42:00,
2013-02-20 14:55:00,54.4,32.0,30.05,ESE,120,3.0,7.0,43,0.00,,,0.01,weatherlink.com 1.10,2013-02-20 19:55:00,
2013-02-20 15:11:00,54.4,34.0,30.05,East,87,1.0,7.0,46,0.00,,,0.01,weatherlink.com 1.10,2013-02-20 20:11:00,
2013-02-20 15:25:00,54.7,34.0,30.05,SE,142,7.0,7.0,46,0.00,,,0.01,weatherlink.com 1.10,2013-02-20 20:25:00,
2013-02-20 15:41:00,54.3,34.0,30.05,SW,233,2.0,6.0,46,0.00,,,0.01,weatherlink.com 1.10,2013-02-20 20:41:00,
2013-02-20 15:56:00,54.3,34.0,30.05,South,177,2.0,7.0,46,0.00,,,0.01,weatherlink.com 1.10,2013-02-20 20:56:00,
2013-02-20 16:11:00,53.5,33.0,30.06,SW,233,3.0,8.0,46,0.00,,,0.01,weatherlink.com 1.10,2013-02-20 21:11:00,
2013-02-20 16:26:00,52.6,33.0,30.06,SSW,196,3.0,9.0,48,0.00,,,0.01,weatherlink.com 1.10,2013-02-20 21:26:00,
2013-02-20 16:41:00,52.0,33.0,30.07,SW,220,1.0,6.0,49,0.00,,,0.01,weatherlink.com 1.10,2013-02-20 21:41:00,
2013-02-20 16:56:00,51.5,33.0,30.07,SSW,213,2.0,6.0,50,0.00,,,0.01,weatherlink.com 1.10,2013-02-20 21:56:00,
2013-02-20 17:11:00,51.0,34.0,30.06,SSE,155,1.0,2.0,53,0.00,,,0.01,weatherlink.com 1.10,2013-02-20 22:11:00,
2013-02-20 17:26:00,50.4,35.0,30.06,South,182,0.0,1.0,55,0.00,,,0.01,weatherlink.com 1.10,2013-02-20 22:26:00,
2013-02-20 17:41:00,49.9,35.0,30.07,SW,229,1.0,2.0,56,0.00,,,0.01,weatherlink.com 1.10,2013-02-20 22:41:00,
2013-02-20 17:56:00,49.7,36.0,30.08,SW,215,1.0,3.0,59,0.00,,,0.01,weatherlink.com 1.10,2013-02-20 22:56:00,
2013-02-20 18:11:00,49.1,36.0,30.09,SW,219,0.0,1.0,62,0.00,,,0.01,weatherlink.com 1.10,2013-02-20 23:11:00,
2013-02-20 18:26:00,48.8,37.0,30.09,SW,223,1.0,2.0,64,0.00,,,0.01,weatherlink.com 1.10,2013-02-20 23:26:00,
2013-02-20 18:56:00,48.2,38.0,30.11,South,180,0.0,0.0,67,0.00,,,0.01,weatherlink.com 1.10,2013-02-20 23:56:00,
2013-02-20 19:11:00,47.9,38.0,30.11,South,184,0.0,1.0,69,0.00,,,0.01,weatherlink.com 1.10,2013-02-21 00:11:00,
2013-02-20 19:26:00,47.4,38.0,30.11,South,184,0.0,0.0,70,0.00,,,0.01,weatherlink.com 1.10,2013-02-21 00:26:00,
2013-02-20 19:41:00,47.1,39.0,30.11,South,184,0.0,0.0,73,0.00,,,0.01,weatherlink.com 1.10,2013-02-21 00:41:00,
2013-02-20 19:56:00,47.1,39.0,30.12,South,184,0.0,1.0,74,0.00,,,0.01,weatherlink.com 1.10,2013-02-21 00:56:00,
2013-02-20 20:11:00,47.0,39.0,30.12,South,184,0.0,0.0,74,0.00,,,0.01,weatherlink.com 1.10,2013-02-21 01:11:00,
2013-02-20 20:26:00,46.9,39.0,30.11,South,184,0.0,1.0,74,0.00,,,0.01,weatherlink.com 1.10,2013-02-21 01:26:00,
2013-02-20 20:41:00,46.8,39.0,30.11,South,187,0.0,1.0,74,0.00,,,0.01,weatherlink.com 1.10,2013-02-21 01:41:00,
2013-02-20 20:56:00,46.7,39.0,30.10,SE,145,0.0,1.0,74,0.00,,,0.01,weatherlink.com 1.10,2013-02-21 01:56:00,
2013-02-20 21:11:00,46.5,39.0,30.09,SE,145,0.0,1.0,75,0.00,,,0.01,weatherlink.com 1.10,2013-02-21 02:11:00,
2013-02-20 21:26:00,46.1,39.0,30.07,SE,142,0.0,1.0,76,0.00,,,0.01,weatherlink.com 1.10,2013-02-21 02:26:00,
2013-02-20 21:41:00,45.9,39.0,30.10,West,260,0.0,2.0,78,0.00,,,0.01,weatherlink.com 1.10,2013-02-21 02:41:00,
2013-02-20 21:56:00,45.9,39.0,30.11,West,260,0.0,0.0,78,0.00,,,0.01,weatherlink.com 1.10,2013-02-21 02:56:00,
2013-02-20 22:11:00,45.9,39.0,30.12,SW,228,0.0,1.0,78,0.00,,,0.01,weatherlink.com 1.10,2013-02-21 03:11:00,
2013-02-20 22:26:00,45.9,39.0,30.12,South,170,1.0,1.0,77,0.00,,,0.01,weatherlink.com 1.10,2013-02-21 03:26:00,
2013-02-20 22:41:00,46.2,39.0,30.12,West,260,0.0,1.0,76,0.00,,,0.01,weatherlink.com 1.10,2013-02-21 03:41:00,
2013-02-20 22:56:00,46.0,39.0,30.11,WSW,258,0.0,0.0,76,0.00,,,0.01,weatherlink.com 1.10,2013-02-21 03:56:00,
2013-02-20 23:11:00,44.5,38.0,30.11,WSW,257,0.0,0.0,78,0.00,,,0.01,weatherlink.com 1.10,2013-02-21 04:11:00,
2013-02-20 23:26:00,42.7,38.0,30.11,WSW,257,0.0,0.0,82,0.00,,,0.01,weatherlink.com 1.10,2013-02-21 04:26:00,
2013-02-20 23:41:00,41.9,37.0,30.11,WSW,257,0.0,0.0,84,0.00,,,0.01,weatherlink.com 1.10,2013-02-21 04:41:00,
2013-02-20 23:56:00,41.7,38.0,30.11,WSW,257,0.0,0.0,85,0.00,,,0.01,weatherlink.com 1.10,2013-02-21 04:56:00,